STARLINK-36797

Last updated on Sun Mar 15 2026 00:02:07 GMT+0000 (Coordinated Universal Time)

1 67815U 26032U 26073.49480071 .00169854 00000+0 11141-2 0 9993 2 67815 97.2840 260.2756 0001629 74.4129 285.7316 15.75252331 5542
UTC large
Height (km)
Speed (km/s)
/
Latitude / Longitude
Inclination (degrees)
Orbital Period (minutes)
Azimuth
Elevation
Range (km)
Doppler Factor

Next 0 passes for location: London (51.5072 / 0.1276)

Sorry there are no passes over London.